Time,TemperatureF,DewpointF,PressureIn,WindDirection,WindDirectionDegrees,WindSpeedMPH,WindSpeedGustMPH,Humidity,HourlyPrecipIn,Conditions,Clouds,dailyrainin,SolarRadiationWatts/m^2,SoftwareType,DateUTC
2013-07-09 00:02:00,70.0,69.0,-100.00,North,4,0.0,0.0,96,0.00,,,0.01,0.000000,,2013-07-09 04:02:00,
2013-07-09 00:34:00,69.0,68.0,-100.00,North,5,1.0,3.0,97,0.00,,,0.01,0.000000,,2013-07-09 04:34:00,
2013-07-09 00:43:00,69.0,68.0,-100.00,North,5,1.0,3.0,97,0.00,,,0.01,0.000000,,2013-07-09 04:43:00,
2013-07-09 00:53:00,69.0,68.0,-100.00,North,5,1.0,3.0,97,0.00,,,0.01,0.000000,,2013-07-09 04:53:00,
2013-07-09 01:02:00,69.0,68.0,-100.00,North,5,1.0,3.0,97,0.00,,,0.01,0.000000,,2013-07-09 05:02:00,
2013-07-09 01:34:00,69.0,68.0,-100.00,North,4,2.0,3.0,98,0.00,,,0.01,0.000000,,2013-07-09 05:34:00,
2013-07-09 01:42:00,69.0,68.0,-100.00,North,4,2.0,3.0,98,0.00,,,0.01,0.000000,,2013-07-09 05:42:00,
2013-07-09 01:52:00,69.0,68.0,-100.00,North,4,2.0,3.0,98,0.00,,,0.01,0.000000,,2013-07-09 05:52:00,
2013-07-09 02:01:00,69.0,68.0,-100.00,North,4,2.0,3.0,98,0.00,,,0.01,0.000000,,2013-07-09 06:01:00,
2013-07-09 02:43:00,69.0,68.0,-100.00,North,4,1.0,4.0,98,0.00,,,0.01,0.000000,,2013-07-09 06:43:00,
2013-07-09 02:53:00,69.0,68.0,-100.00,North,4,1.0,4.0,98,0.00,,,0.01,0.000000,,2013-07-09 06:53:00,
2013-07-09 03:02:00,69.0,68.0,-100.00,North,4,1.0,4.0,98,0.00,,,0.01,0.000000,,2013-07-09 07:02:00,
2013-07-09 03:34:00,69.0,68.0,-100.00,North,5,0.0,2.0,97,0.00,,,0.00,0.000000,,2013-07-09 07:34:00,
2013-07-09 03:43:00,69.0,68.0,-100.00,North,5,0.0,2.0,97,0.00,,,0.00,0.000000,,2013-07-09 07:43:00,
2013-07-09 03:53:00,69.0,68.0,-100.00,North,5,0.0,2.0,97,0.00,,,0.00,0.000000,,2013-07-09 07:53:00,
2013-07-09 04:01:00,69.0,68.0,-100.00,North,5,0.0,2.0,97,0.00,,,0.00,0.000000,,2013-07-09 08:01:00,
2013-07-09 04:33:00,68.0,67.0,-100.00,North,9,0.0,0.0,98,0.00,,,0.00,0.000000,,2013-07-09 08:33:00,
2013-07-09 04:43:00,68.0,67.0,-100.00,North,9,0.0,0.0,98,0.00,,,0.00,0.000000,,2013-07-09 08:43:00,
2013-07-09 04:52:00,68.0,67.0,-100.00,North,9,0.0,0.0,98,0.00,,,0.00,0.000000,,2013-07-09 08:52:00,
2013-07-09 05:02:00,68.0,67.0,-100.00,North,9,0.0,0.0,98,0.00,,,0.00,0.000000,,2013-07-09 09:02:00,
2013-07-09 05:34:00,68.0,67.0,-100.00,North,4,1.0,4.0,98,0.00,,,0.00,0.000000,,2013-07-09 09:34:00,
2013-07-09 05:42:00,68.0,67.0,-100.00,North,4,1.0,4.0,98,0.00,,,0.00,0.000000,,2013-07-09 09:42:00,
2013-07-09 05:53:00,68.0,67.0,-100.00,North,4,1.0,4.0,98,0.00,,,0.00,0.000000,,2013-07-09 09:53:00,
2013-07-09 06:01:00,68.0,67.0,-100.00,North,4,1.0,4.0,98,0.00,,,0.00,0.000000,,2013-07-09 10:01:00,
2013-07-09 06:34:00,68.0,68.0,-100.00,North,7,0.0,2.0,99,0.00,,,0.00,0.000000,,2013-07-09 10:34:00,
2013-07-09 06:42:00,68.0,68.0,-100.00,North,7,0.0,2.0,99,0.00,,,0.00,0.000000,,2013-07-09 10:42:00,
2013-07-09 06:52:00,68.0,68.0,-100.00,North,7,0.0,2.0,99,0.00,,,0.00,0.000000,,2013-07-09 10:52:00,
2013-07-09 07:01:00,68.0,68.0,-100.00,North,7,0.0,2.0,99,0.00,,,0.00,0.000000,,2013-07-09 11:01:00,
2013-07-09 07:34:00,68.0,68.0,-100.00,North,4,0.0,2.0,99,0.00,,,0.00,9.000000,,2013-07-09 11:34:00,
2013-07-09 07:42:00,68.0,68.0,-100.00,North,4,0.0,2.0,99,0.00,,,0.00,9.000000,,2013-07-09 11:42:00,
2013-07-09 07:53:00,68.0,68.0,-100.00,North,4,0.0,2.0,99,0.00,,,0.00,9.000000,,2013-07-09 11:53:00,
2013-07-09 08:02:00,68.0,68.0,-100.00,North,4,0.0,2.0,99,0.00,,,0.00,9.000000,,2013-07-09 12:02:00,
2013-07-09 08:33:00,69.0,68.0,-100.00,North,9,0.0,2.0,98,0.00,,,0.00,69.000000,,2013-07-09 12:33:00,
2013-07-09 08:43:00,69.0,68.0,-100.00,North,9,0.0,2.0,98,0.00,,,0.00,69.000000,,2013-07-09 12:43:00,
2013-07-09 08:53:00,69.0,68.0,-100.00,North,9,0.0,2.0,98,0.00,,,0.00,69.000000,,2013-07-09 12:53:00,
2013-07-09 09:01:00,69.0,68.0,-100.00,North,9,0.0,2.0,98,0.00,,,0.00,69.000000,,2013-07-09 13:01:00,
2013-07-09 09:43:00,74.0,71.0,-100.00,NNE,25,1.0,3.0,91,0.00,,,0.00,217.000000,,2013-07-09 13:43:00,
2013-07-09 09:53:00,74.0,71.0,-100.00,NNE,25,1.0,3.0,91,0.00,,,0.00,217.000000,,2013-07-09 13:53:00,
2013-07-09 10:01:00,74.0,71.0,-100.00,NNE,25,1.0,3.0,91,0.00,,,0.00,217.000000,,2013-07-09 14:01:00,
2013-07-09 10:34:00,78.0,71.0,-100.00,NE,39,3.0,5.0,78,0.00,,,0.00,439.000000,,2013-07-09 14:34:00,
2013-07-09 10:43:00,78.0,71.0,-100.00,NE,39,3.0,5.0,78,0.00,,,0.00,439.000000,,2013-07-09 14:43:00,
2013-07-09 10:53:00,78.0,71.0,-100.00,NE,39,3.0,5.0,78,0.00,,,0.00,439.000000,,2013-07-09 14:53:00,
2013-07-09 11:02:00,78.0,71.0,-100.00,NE,39,3.0,5.0,78,0.00,,,0.00,439.000000,,2013-07-09 15:02:00,
2013-07-09 11:43:00,82.0,71.0,-100.00,NNE,28,3.0,6.0,70,0.00,,,0.00,766.000000,,2013-07-09 15:43:00,
2013-07-09 11:52:00,82.0,71.0,-100.00,NNE,28,3.0,6.0,70,0.00,,,0.00,766.000000,,2013-07-09 15:52:00,
2013-07-09 12:02:00,82.0,71.0,-100.00,NNE,28,3.0,6.0,70,0.00,,,0.00,766.000000,,2013-07-09 16:02:00,
2013-07-09 12:43:00,85.0,70.0,-100.00,NNE,20,2.0,6.0,62,0.00,,,0.00,940.000000,,2013-07-09 16:43:00,
2013-07-09 12:53:00,85.0,70.0,-100.00,NNE,20,2.0,6.0,62,0.00,,,0.00,940.000000,,2013-07-09 16:53:00,
2013-07-09 13:02:00,85.0,70.0,-100.00,NNE,20,2.0,6.0,62,0.00,,,0.00,940.000000,,2013-07-09 17:02:00,
2013-07-09 13:45:00,86.0,70.0,-100.00,North,7,4.0,7.0,59,0.00,,,0.00,1002.000000,,2013-07-09 17:45:00,
2013-07-09 13:53:00,86.0,70.0,-100.00,North,7,4.0,7.0,59,0.00,,,0.00,1002.000000,,2013-07-09 17:53:00,
2013-07-09 14:02:00,86.0,70.0,-100.00,North,7,4.0,7.0,59,0.00,,,0.00,1002.000000,,2013-07-09 18:02:00,
2013-07-09 14:32:00,88.0,72.0,-100.00,North,5,3.0,9.0,60,0.00,,,0.00,934.000000,,2013-07-09 18:32:00,
2013-07-09 14:43:00,88.0,72.0,-100.00,North,5,3.0,9.0,60,0.00,,,0.00,934.000000,,2013-07-09 18:43:00,
2013-07-09 14:52:00,88.0,72.0,-100.00,North,5,3.0,9.0,60,0.00,,,0.00,934.000000,,2013-07-09 18:52:00,
2013-07-09 15:01:00,88.0,72.0,-100.00,North,5,3.0,9.0,60,0.00,,,0.00,934.000000,,2013-07-09 19:01:00,
2013-07-09 15:33:00,90.0,71.0,-100.00,NNE,18,3.0,9.0,54,0.00,,,0.00,1011.000000,,2013-07-09 19:33:00,
2013-07-09 15:42:00,90.0,71.0,-100.00,NNE,18,3.0,9.0,54,0.00,,,0.00,1011.000000,,2013-07-09 19:42:00,
2013-07-09 15:52:00,90.0,71.0,-100.00,NNE,18,3.0,9.0,54,0.00,,,0.00,1011.000000,,2013-07-09 19:52:00,
2013-07-09 16:02:00,90.0,71.0,-100.00,NNE,18,3.0,9.0,54,0.00,,,0.00,1011.000000,,2013-07-09 20:02:00,
2013-07-09 16:43:00,90.0,72.0,-100.00,North,6,4.0,10.0,55,0.00,,,0.00,1028.000000,,2013-07-09 20:43:00,
2013-07-09 16:52:00,90.0,72.0,-100.00,North,6,4.0,10.0,55,0.00,,,0.00,1028.000000,,2013-07-09 20:52:00,
2013-07-09 17:01:00,90.0,72.0,-100.00,North,6,4.0,10.0,55,0.00,,,0.00,1028.000000,,2013-07-09 21:01:00,
2013-07-09 17:43:00,87.0,71.0,-100.00,North,1,4.0,7.0,60,-99.99,,,0.00,618.000000,,2013-07-09 21:43:00,
2013-07-09 17:52:00,87.0,71.0,-100.00,North,1,4.0,7.0,60,-99.99,,,0.00,618.000000,,2013-07-09 21:52:00,
2013-07-09 18:01:00,87.0,71.0,-100.00,North,1,4.0,7.0,60,-99.99,,,0.00,618.000000,,2013-07-09 22:01:00,
2013-07-09 18:33:00,84.0,65.0,-100.00,North,0,4.0,7.0,53,0.00,,,0.00,727.000000,,2013-07-09 22:33:00,
2013-07-09 18:42:00,84.0,65.0,-100.00,North,0,4.0,7.0,53,0.00,,,0.00,727.000000,,2013-07-09 22:42:00,
2013-07-09 18:53:00,84.0,65.0,-100.00,North,0,4.0,7.0,53,0.00,,,0.00,727.000000,,2013-07-09 22:53:00,
2013-07-09 19:02:00,84.0,65.0,-100.00,North,0,4.0,7.0,53,0.00,,,0.00,727.000000,,2013-07-09 23:02:00,
2013-07-09 19:33:00,77.0,68.0,-100.00,North,0,3.0,8.0,73,0.00,,,0.00,339.000000,,2013-07-09 23:33:00,
2013-07-09 19:43:00,77.0,68.0,-100.00,North,0,3.0,8.0,73,0.00,,,0.00,339.000000,,2013-07-09 23:43:00,
2013-07-09 19:53:00,77.0,68.0,-100.00,North,0,3.0,8.0,73,0.00,,,0.00,339.000000,,2013-07-09 23:53:00,
2013-07-09 20:01:00,77.0,68.0,-100.00,North,0,3.0,8.0,73,0.00,,,0.00,339.000000,,2013-07-10 00:01:00,
2013-07-09 20:33:00,71.0,69.0,-100.00,North,1,2.0,11.0,92,0.09,,,0.09,20.000000,,2013-07-10 00:33:00,
2013-07-09 20:43:00,71.0,69.0,-100.00,North,1,2.0,11.0,92,0.09,,,0.09,20.000000,,2013-07-10 00:43:00,
2013-07-09 20:52:00,71.0,69.0,-100.00,North,1,2.0,11.0,92,0.09,,,0.09,20.000000,,2013-07-10 00:52:00,
2013-07-09 21:01:00,71.0,69.0,-100.00,North,1,2.0,11.0,92,0.09,,,0.09,20.000000,,2013-07-10 01:01:00,
2013-07-09 21:43:00,70.0,69.0,-100.00,North,0,2.0,6.0,97,0.02,,,0.11,8.000000,,2013-07-10 01:43:00,
2013-07-09 21:53:00,70.0,69.0,-100.00,North,0,2.0,6.0,97,0.02,,,0.11,8.000000,,2013-07-10 01:53:00,
2013-07-09 22:02:00,70.0,69.0,-100.00,North,0,2.0,6.0,97,0.02,,,0.11,8.000000,,2013-07-10 02:02:00,
2013-07-09 22:34:00,70.0,69.0,-100.00,North,1,1.0,4.0,98,0.00,,,0.11,0.000000,,2013-07-10 02:34:00,
2013-07-09 22:43:00,70.0,69.0,-100.00,North,1,1.0,4.0,98,0.00,,,0.11,0.000000,,2013-07-10 02:43:00,
2013-07-09 22:53:00,70.0,69.0,-100.00,North,1,1.0,4.0,98,0.00,,,0.11,0.000000,,2013-07-10 02:53:00,
2013-07-09 23:01:00,70.0,69.0,-100.00,North,1,1.0,4.0,98,0.00,,,0.11,0.000000,,2013-07-10 03:01:00,
2013-07-09 23:32:00,69.0,68.0,-100.00,North,1,0.0,2.0,98,0.00,,,0.11,0.000000,,2013-07-10 03:32:00,
2013-07-09 23:43:00,69.0,68.0,-100.00,North,1,0.0,2.0,98,0.00,,,0.11,0.000000,,2013-07-10 03:43:00,
2013-07-09 23:52:00,69.0,68.0,-100.00,North,1,0.0,2.0,98,0.00,,,0.11,0.000000,,2013-07-10 03:52:00,